• In France
  • List of Countries
  • For 7 days
  • Water Temperature
  • Satellite Maps
  • Weather Map
  • Weather Widgets
  • user-avatar
    Login

    Hourly Weather Erd

    Today, 17 October, Wednesday

    Time Temperature Precipitation Wind Pressure Humidity
    00:00 +16°C° 0 mm 2 mps 756 mmHg 39%
    01:00 +15°C° 0 mm 2 mps 756 mmHg 42%
    02:00 +15°C° 0 mm 2 mps 756 mmHg 43%
    03:00 +14°C° 0 mm 2 mps 756 mmHg 44%
    04:00 +14°C° 0 mm 2 mps 756 mmHg 46%
    05:00 +14°C° 0 mm 2 mps 756 mmHg 46%
    06:00 +14°C° 0 mm 2 mps 756 mmHg 46%
    07:00 +14°C° 0 mm 2 mps 756 mmHg 46%
    08:00 +16°C° 0 mm 2 mps 756 mmHg 42%
    09:00 +18°C° 0 mm 2 mps 756 mmHg 37%
    10:00 +20°C° 0 mm 3 mps 756 mmHg 33%
    11:00 +21°C° 0 mm 3 mps 756 mmHg 31%
    12:00 +22°C° 0 mm 3 mps 756 mmHg 28%
    13:00 +24°C° 0 mm 3 mps 755 mmHg 26%
    14:00 +24°C° 0 mm 2 mps 755 mmHg 27%
    15:00 +23°C° 0 mm 2 mps 755 mmHg 28%
    16:00 +23°C° 0 mm 2 mps 754 mmHg 30%
    17:00 +21°C° 0 mm 2 mps 754 mmHg 32%
    18:00 +19°C° 0 mm 2 mps 754 mmHg 34%
    19:00 +18°C° 0 mm 2 mps 754 mmHg 36%
    20:00 +17°C° 0 mm 2 mps 754 mmHg 38%
    21:00 +17°C° 0 mm 2 mps 754 mmHg 39%
    22:00 +16°C° 0 mm 2 mps 754 mmHg 40%
    23:00 +16°C° 0 mm 1 mps 754 mmHg 40%

    Tomorrow, 18 October, Thursday

    Time Temperature Precipitation Wind Pressure Humidity
    00:00 +16°C° 0 mm 1 mps 754 mmHg 41%
    01:00 +15°C° 0 mm 1 mps 754 mmHg 42%
    02:00 +15°C° 0 mm 1 mps 754 mmHg 42%
    03:00 +15°C° 0 mm 1 mps 754 mmHg 42%
    04:00 +15°C° 0 mm 1 mps 754 mmHg 42%
    05:00 +15°C° 0 mm 1 mps 754 mmHg 42%
    06:00 +15°C° 0 mm 1 mps 754 mmHg 41%
    07:00 +15°C° 0 mm 1 mps 754 mmHg 41%
    08:00 +16°C° 0 mm 1 mps 754 mmHg 40%
    09:00 +18°C° 0 mm 1 mps 754 mmHg 38%
    10:00 +19°C° 0 mm 1 mps 754 mmHg 36%
    11:00 +20°C° 0 mm 1 mps 754 mmHg 35%
    12:00 +21°C° 0 mm 1 mps 753 mmHg 34%
    13:00 +22°C° 0 mm 1 mps 753 mmHg 33%
    14:00 +22°C° 0 mm 1 mps 753 mmHg 35%
    15:00 +22°C° 0 mm 1 mps 753 mmHg 36%
    16:00 +21°C° 0 mm 1 mps 753 mmHg 37%
    17:00 +21°C° 0 mm 1 mps 753 mmHg 38%
    18:00 +20°C° 0 mm 1 mps 753 mmHg 39%
    19:00 +19°C° 0 mm 1 mps 753 mmHg 40%
    20:00 +19°C° 0 mm 1 mps 753 mmHg 41%
    21:00 +18°C° 0 mm 1 mps 753 mmHg 41%
    22:00 +18°C° 0 mm 1 mps 754 mmHg 41%
    23:00 +18°C° 0 mm 1 mps 754 mmHg 43%

    Day after tomorrow, 19 October, Friday

    Time Temperature Precipitation Wind Pressure Humidity
    00:00 +16°C° 0 mm 1 mps 754 mmHg 44%
    01:00 +16°C° 0 mm 1 mps 754 mmHg 45%
    02:00 +16°C° 0 mm 1 mps 754 mmHg 46%
    03:00 +16°C° 0 mm 1 mps 754 mmHg 47%
    04:00 +16°C° 0 mm 1 mps 754 mmHg 48%
    05:00 +15°C° 0 mm 1 mps 754 mmHg 49%
    06:00 +15°C° 0 mm 1 mps 754 mmHg 50%
    07:00 +15°C° 0 mm 1 mps 754 mmHg 51%
    08:00 +18°C° 0.1 mm 1 mps 754 mmHg 47%
    09:00 +19°C° 0.1 mm 1 mps 755 mmHg 44%
    10:00 +20°C° 0.1 mm 2 mps 755 mmHg 41%
    11:00 +21°C° 0 mm 2 mps 755 mmHg 39%
    12:00 +21°C° 0 mm 2 mps 755 mmHg 38%
    13:00 +23°C° 0 mm 2 mps 754 mmHg 36%
    14:00 +23°C° 0 mm 2 mps 754 mmHg 38%
    15:00 +21°C° 0 mm 2 mps 754 mmHg 40%
    16:00 +21°C° 0 mm 2 mps 754 mmHg 42%
    17:00 +20°C° 0 mm 2 mps 755 mmHg 48%
    18:00 +18°C° 0 mm 2 mps 755 mmHg 53%
    19:00 +17°C° 0 mm 2 mps 755 mmHg 59%
    20:00 +16°C° 0 mm 2 mps 756 mmHg 62%
    21:00 +15°C° 0 mm 2 mps 756 mmHg 66%
    22:00 +15°C° 0 mm 2 mps 756 mmHg 69%
    23:00 +14°C° 0 mm 2 mps 756 mmHg 71%

    20 October, Saturday

    Time Temperature Precipitation Wind Pressure Humidity
    00:00 +14°C° 0 mm 1 mps 757 mmHg 73%
    01:00 +13°C° 0 mm 1 mps 757 mmHg 76%
    02:00 +13°C° 0 mm 1 mps 757 mmHg 77%
    03:00 +13°C° 0 mm 1 mps 757 mmHg 78%
    04:00 +13°C° 0 mm 1 mps 757 mmHg 80%
    05:00 +13°C° 0 mm 1 mps 757 mmHg 79%
    06:00 +13°C° 0 mm 1 mps 758 mmHg 79%
    07:00 +13°C° 0 mm 1 mps 758 mmHg 78%
    08:00 +14°C° 0 mm 1 mps 758 mmHg 72%
    09:00 +16°C° 0 mm 2 mps 758 mmHg 66%
    10:00 +17°C° 0 mm 2 mps 759 mmHg 60%
    11:00 +18°C° 0 mm 2 mps 759 mmHg 56%
    12:00 +19°C° 0 mm 2 mps 758 mmHg 53%
    13:00 +20°C° 0 mm 2 mps 758 mmHg 49%
    14:00 +19°C° 0 mm 2 mps 758 mmHg 50%
    15:00 +19°C° 0 mm 2 mps 758 mmHg 51%
    16:00 +19°C° 0 mm 2 mps 758 mmHg 51%
    17:00 +18°C° 0 mm 2 mps 759 mmHg 55%
    18:00 +16°C° 0 mm 2 mps 759 mmHg 59%
    19:00 +15°C° 0 mm 2 mps 759 mmHg 62%
    20:00 +14°C° 0 mm 2 mps 760 mmHg 63%
    21:00 +14°C° 0 mm 2 mps 760 mmHg 65%
    22:00 +13°C° 0 mm 2 mps 760 mmHg 66%
    23:00 +13°C° 0 mm 2 mps 760 mmHg 66%

    21 October, Sunday

    Time Temperature Precipitation Wind Pressure Humidity
    00:00 +13°C° 0 mm 2 mps 760 mmHg 66%
    01:00 +12°C° 0 mm 1 mps 760 mmHg 66%
    02:00 +12°C° 0 mm 1 mps 761 mmHg 66%
    03:00 +12°C° 0 mm 1 mps 761 mmHg 66%
    04:00 +11°C° 0 mm 1 mps 761 mmHg 66%
    05:00 +11°C° 0 mm 1 mps 761 mmHg 66%
    06:00 +11°C° 0 mm 1 mps 761 mmHg 66%
    07:00 +11°C° 0 mm 1 mps 761 mmHg 66%
    08:00 +12°C° 0 mm 2 mps 761 mmHg 62%
    09:00 +13°C° 0 mm 2 mps 761 mmHg 57%
    10:00 +14°C° 0 mm 2 mps 761 mmHg 53%
    11:00 +15°C° 0 mm 2 mps 761 mmHg 49%
    12:00 +16°C° 0 mm 2 mps 760 mmHg 45%
    13:00 +17°C° 0 mm 2 mps 760 mmHg 42%
    14:00 +17°C° 0 mm 2 mps 760 mmHg 42%
    15:00 +16°C° 0 mm 2 mps 759 mmHg 42%
    16:00 +16°C° 0 mm 2 mps 759 mmHg 42%
    17:00 +15°C° 0 mm 2 mps 759 mmHg 46%
    18:00 +14°C° 0 mm 2 mps 759 mmHg 50%
    19:00 +12°C° 0 mm 2 mps 759 mmHg 54%
    20:00 +12°C° 0 mm 2 mps 759 mmHg 58%
    21:00 +10°C° 0 mm 2 mps 759 mmHg 61%
    22:00 +9°C° 0 mm 2 mps 759 mmHg 64%
    23:00 +10°C° 0 mm 1 mps 759 mmHg 65%

    22 October, Monday

    Time Temperature Precipitation Wind Pressure Humidity
    00:00 +10°C° 0 mm 1 mps 759 mmHg 67%
    01:00 +9°C° 0 mm 1 mps 758 mmHg 68%
    02:00 +9°C° 0 mm 1 mps 758 mmHg 69%
    03:00 +9°C° 0 mm 1 mps 758 mmHg 70%
    04:00 +8°C° 0 mm 1 mps 758 mmHg 71%
    05:00 +8°C° 0 mm 1 mps 758 mmHg 71%
    06:00 +8°C° 0 mm 1 mps 758 mmHg 71%
    07:00 +9°C° 0 mm 1 mps 758 mmHg 71%
    08:00 +10°C° 0 mm 1 mps 758 mmHg 65%
    09:00 +11°C° 0 mm 1 mps 758 mmHg 59%
    10:00 +13°C° 0 mm 1 mps 758 mmHg 54%
    11:00 +13°C° 0 mm 1 mps 757 mmHg 52%
    12:00 +14°C° 0 mm 1 mps 757 mmHg 50%
    13:00 +14°C° 0 mm 2 mps 757 mmHg 47%
    14:00 +14°C° 0 mm 1 mps 756 mmHg 48%
    15:00 +14°C° 0 mm 1 mps 756 mmHg 49%
    16:00 +14°C° 0 mm 1 mps 756 mmHg 49%
    17:00 +13°C° 0 mm 1 mps 756 mmHg 52%
    18:00 +12°C° 0 mm 1 mps 756 mmHg 55%
    19:00 +10°C° 0 mm 0 mps 756 mmHg 57%
    20:00 +10°C° 0 mm 0 mps 756 mmHg 58%
    21:00 +11°C° 0 mm 1 mps 756 mmHg 59%
    22:00 +11°C° 0 mm 1 mps 757 mmHg 60%
    23:00 +11°C° 0 mm 1 mps 756 mmHg 61%
    Show more